Regional Weather Roundup
Issued by NWS Goodland, KS

Home | Current Version | Previous Version | Graphics & Text | Print | Product List | Glossary On
Versions: 1 2 3 4 5 6 7 8 9 10 11 12 13 14 15 16 17 18 19 20 21 22 23 24 25 26 27 28 29 30 31 32 33 34 35 36 37 38 39 40 41 42 43 44 45 46 47 48 49 50
000
ASUS43 KGLD 220559
RWRGLD

GOODLAND FORECAST AREA HOURLY WEATHER ROUNDUP
NATIONAL WEATHER SERVICE GOODLAND KS
1100 PM MST SUN JAN 21 2018

...OFFICIAL OBSERVATIONS...

CITY           SKY/WX    TMP DP  RH WIND       PRES   REMARKS
GOODLAND KS    FOG       26  25  96 NW37G49   29.72R VSB 1/4 WCI   8
HILL CITY KS   LGT SNOW  33  32  96 N25G33    29.56F FOG
IMPERIAL NEB   FOG       27  26  96 N32G44    29.76F VSB 1   WCI  10
MCCOOK NEB     SNOW      30  29  96 N29G39    29.65S VSB 1/2 WCI  15
AKRON CO       FOG       23  22  96 NW30G39   29.87R VSB 3/4 WCI   5
BURLINGTON CO  FOG       26  24  92 NW35G51   29.78R VSB 1/2 WCI   9
LIMON CO       LGT SNOW  21  20  96 NW32G47   29.86S VSB 1   WCI   2
$$

...UNOFFICIAL OBSERVATIONS...

CITY           SKY/WX    TMP DP  RH WIND       PRES   REMARKS
NORTON KS      MIX PCPN  34  28  80 N15G23    29.58
SHARON SPRINGS   N/A     27  26  95 N28G39      N/A  WCI  12
KIT CARSON CO    N/A     25  22  89 MISG        N/A
YUMA CO        LGT SNOW  25  23  93 NW24G31   29.85R WCI   9
$$




USA.gov is the U.S. government's official web portal to all federal, state and local government web resources and services.